sat.trackr.live / text

‹ back to catalog

STARLINK-30584

NORAD 58089 · 2023-160Q

PAYLOAD ACTIVE UNKNOWN

§ Identity

Operator
Country
US
Launch date
2023-10-18
Launch site
AFETR
Launch vehicle
Mass (kg)
RCS (m²)

Purposes: comms

External: N2YO · Heavens-Above · Gunter

§ Orbital elements

Epoch: 2026-05-24T23:20:22.185600Z

Period
94.27 min
Inclination
43.0038°
Eccentricity
0.0001223
Mean motion
15.27577498 rev/d
Perigee alt
482.2 km
Apogee alt
483.9 km
Semi-major
6,861.2 km
B*
-9.9157e-7
RAAN
6.9602°
Arg perigee
273.9091°
Mean anomaly
86.1620°
Rev number
14,461

§ Raw data

STARLINK-305841 58089U 23160Q   26144.97247900 -.00000289  00000+0 -99157-6 0  99942 58089  43.0038   6.9602 0001223 273.9091  86.1620 15.27577498144616

JSON: /api/v1/satellites/58089 · /tle

For live sub-satellite position, see the globe view (requires WebGL).

§ Visibility from observer

Set your observer location to see the next 7 days of passes ≥ 10°. The values pass through the URL so the page stays shareable.

No JS? Fill the form by hand. The geolocation button needs JavaScript.